GALAXY 32 (G-32)

Last updated on Wed Sep 17 2025 00:02:51 GMT+0000 (Coordinated Universal Time)

1 54244U 22153B 25259.56570527 .00000000 00000+0 00000+0 0 9990 2 54244 0.0184 150.6756 0000362 127.0433 190.6942 1.00268490 10401
UTC large
Height (km)
Speed (km/s)
/
Latitude / Longitude
Inclination (degrees)
Orbital Period (minutes)
Azimuth
Elevation
Range (km)
Doppler Factor

Next 0 passes for location: London (51.5072 / 0.1276)

Sorry there are no passes over London.